THY4155 LTFC-LTFJ

Flight info

Callsign THY4155
Flight time 0h 51m
Altitude 36000
Route EKSEN UL610 OSGED UL620 APSER UL610 ETAMP
Aircraft B738/M-SDE2E3FGHIRWXY/LB1

Departure

Time 2026-04-21 08:45
Airport Süleyman Demirel International Airport (LTFC)

Arrival

Time 2026-04-21 09:37
Airport Istanbul Sabiha Gökçen International Airport (LTFJ)
Time Latitude Longitude Altitude Speed Heading
2026-04-21 08:27 37.85860 30.36716 2839 ft 0 kts
2026-04-21 08:39 37.85869 30.36716 2839 ft 3 kts 358°
2026-04-21 08:39 37.85879 30.36721 2839 ft 1 kts 44°
2026-04-21 08:39 37.85875 30.36729 2838 ft 1 kts 131°
2026-04-21 08:39 37.85864 30.36726 2836 ft 3 kts 187°
2026-04-21 08:40 37.85833 30.36723 2838 ft 6 kts 182°
2026-04-21 08:40 37.85786 30.36747 2839 ft 9 kts 141°
2026-04-21 08:40 37.85733 30.36803 2839 ft 11 kts 140°
2026-04-21 08:40 37.85667 30.36878 2838 ft 14 kts 126°
2026-04-21 08:41 37.85671 30.36941 2836 ft 7 kts 49°
2026-04-21 08:41 37.85711 30.36996 2837 ft 11 kts 50°
2026-04-21 08:41 37.85776 30.37092 2837 ft 17 kts 49°
2026-04-21 08:41 37.85866 30.37225 2838 ft 22 kts 50°
2026-04-21 08:42 37.85978 30.37392 2839 ft 27 kts 49°
2026-04-21 08:42 37.86098 30.37569 2840 ft 26 kts 49°
2026-04-21 08:42 37.86211 30.37734 2841 ft 24 kts 50°
2026-04-21 08:42 37.86315 30.37890 2839 ft 23 kts 49°
2026-04-21 08:43 37.86416 30.38039 2839 ft 22 kts 50°
2026-04-21 08:43 37.86520 30.38115 2839 ft 15 kts 58°
2026-04-21 08:43 37.86503 30.38160 2840 ft 4 kts 198°
2026-04-21 08:43 37.86479 30.38133 2839 ft 5 kts 231°
2026-04-21 08:44 37.86477 30.38129 2839 ft 0 kts 231°
2026-04-21 08:44 37.86471 30.38121 2840 ft 6 kts 231°
2026-04-21 08:45 37.86312 30.37886 2840 ft 73 kts 230°
2026-04-21 08:45 37.85826 30.37167 2837 ft 140 kts 229°
2026-04-21 08:45 37.85091 30.36069 3072 ft 174 kts 228°
2026-04-21 08:45 37.84285 30.34989 3953 ft 170 kts 220°
2026-04-21 08:46 37.83331 30.34116 4301 ft 174 kts 219°
2026-04-21 08:46 37.82339 30.32981 4627 ft 207 kts 224°
2026-04-21 08:46 37.81209 30.31690 5074 ft 225 kts 223°
2026-04-21 08:46 37.80008 30.30366 5661 ft 232 kts 222°
2026-04-21 08:47 37.78771 30.29041 6495 ft 235 kts 221°
2026-04-21 08:47 37.77514 30.27714 7408 ft 237 kts 221°
2026-04-21 08:47 37.76225 30.26364 8261 ft 244 kts 221°
2026-04-21 08:47 37.74927 30.25028 9248 ft 247 kts 217°
2026-04-21 08:48 37.73298 30.24263 10143 ft 256 kts 186°
2026-04-21 08:48 37.71531 30.24644 10998 ft 264 kts 156°
2026-04-21 08:48 37.70093 30.26118 11777 ft 273 kts 126°
2026-04-21 08:48 37.69371 30.28328 12580 ft 278 kts 96°
2026-04-21 08:49 37.69562 30.30732 13383 ft 278 kts 65°
2026-04-21 08:49 37.70666 30.32682 14139 ft 274 kts 33°
2026-04-21 08:49 37.72384 30.33555 14873 ft 266 kts
2026-04-21 08:49 37.74232 30.33705 15648 ft 267 kts 359°
2026-04-21 08:50 37.76102 30.33819 16416 ft 270 kts 359°
2026-04-21 08:50 37.77993 30.33954 17205 ft 273 kts
2026-04-21 08:50 37.79904 30.34108 17994 ft 276 kts
2026-04-21 08:50 37.81823 30.34404 18684 ft 284 kts 14°
2026-04-21 08:51 37.83544 30.35628 19289 ft 296 kts 39°
2026-04-21 08:51 37.84751 30.37846 19583 ft 323 kts 67°
2026-04-21 08:51 37.85310 30.40751 19766 ft 347 kts 77°
2026-04-21 08:51 37.85736 30.43853 19918 ft 369 kts 78°
2026-04-21 08:52 37.86164 30.47113 20061 ft 390 kts 78°
2026-04-21 08:52 37.86650 30.50576 20198 ft 408 kts 77°
2026-04-21 08:52 37.87231 30.54180 20302 ft 425 kts 71°
2026-04-21 08:52 37.88589 30.57493 20572 ft 427 kts 47°
2026-04-21 08:53 37.90746 30.60037 21147 ft 422 kts 31°
2026-04-21 08:53 37.93354 30.61683 21747 ft 417 kts 14°
2026-04-21 08:53 37.96196 30.62265 22299 ft 413 kts 357°
2026-04-21 08:53 37.99026 30.61845 22821 ft 410 kts 341°
2026-04-21 08:54 38.01684 30.60562 23370 ft 410 kts 334°
2026-04-21 08:54 38.04297 30.59075 23845 ft 413 kts 333°
2026-04-21 08:54 38.06885 30.57566 24262 ft 415 kts 333°
2026-04-21 08:54 38.09558 30.56020 24697 ft 418 kts 333°
2026-04-21 08:55 38.12180 30.54529 25136 ft 420 kts 333°
2026-04-21 08:55 38.14859 30.53023 25553 ft 422 kts 334°
2026-04-21 08:55 38.17566 30.51512 25945 ft 425 kts 334°
2026-04-21 08:55 38.20279 30.50000 26341 ft 427 kts 334°
2026-04-21 08:56 38.23010 30.48475 26751 ft 429 kts 334°
2026-04-21 08:56 38.25759 30.46948 27141 ft 432 kts 334°
2026-04-21 08:56 38.28523 30.45425 27514 ft 434 kts 334°
2026-04-21 08:56 38.31302 30.43899 27869 ft 436 kts 334°
2026-04-21 08:57 38.34097 30.42363 28221 ft 438 kts 334°
2026-04-21 08:57 38.36898 30.40820 28523 ft 440 kts 334°
2026-04-21 08:57 38.39712 30.39267 28869 ft 442 kts 334°
2026-04-21 08:57 38.42546 30.37702 29238 ft 443 kts 334°
2026-04-21 08:58 38.45379 30.36135 29685 ft 442 kts 334°
2026-04-21 08:58 38.48197 30.34575 30190 ft 440 kts 334°
2026-04-21 08:58 38.50993 30.33027 30634 ft 437 kts 333°
2026-04-21 08:58 38.53742 30.31502 31031 ft 436 kts 333°
2026-04-21 08:59 38.56524 30.29940 31418 ft 435 kts 333°
2026-04-21 08:59 38.59291 30.28376 31822 ft 434 kts 333°
2026-04-21 08:59 38.62047 30.26822 32249 ft 432 kts 333°
2026-04-21 08:59 38.64801 30.25286 32665 ft 430 kts 333°
2026-04-21 09:00 38.67546 30.23760 33058 ft 429 kts 333°
2026-04-21 09:00 38.70283 30.22237 33432 ft 428 kts 333°
2026-04-21 09:00 38.73016 30.20716 33824 ft 427 kts 333°
2026-04-21 09:00 38.75734 30.19199 34178 ft 425 kts 333°
2026-04-21 09:01 38.78450 30.17680 34431 ft 426 kts 333°
2026-04-21 09:01 38.81171 30.16157 34668 ft 427 kts 333°
2026-04-21 09:01 38.83888 30.14635 34939 ft 426 kts 333°
2026-04-21 09:01 38.86604 30.13112 35215 ft 426 kts 333°
2026-04-21 09:02 38.89282 30.11611 35457 ft 426 kts 333°
2026-04-21 09:02 38.91995 30.10087 35708 ft 426 kts 333°
2026-04-21 09:02 38.94714 30.08560 35952 ft 426 kts 333°
2026-04-21 09:03 39.02887 30.03961 35998 ft 427 kts 333°
2026-04-21 09:03 39.08323 30.00895 35998 ft 426 kts 333°
2026-04-21 09:04 39.13753 29.97827 35994 ft 426 kts 333°
2026-04-21 09:04 39.19174 29.94758 35996 ft 425 kts 333°
2026-04-21 09:05 39.24592 29.91686 35994 ft 425 kts 333°
2026-04-21 09:05 39.30009 29.88609 35990 ft 425 kts 333°
2026-04-21 09:06 39.35425 29.85528 35989 ft 425 kts 332°
2026-04-21 09:06 39.40858 29.82468 35991 ft 426 kts 333°
2026-04-21 09:07 39.46263 29.79464 35983 ft 425 kts 333°
2026-04-21 09:07 39.51703 29.76429 35981 ft 425 kts 333°
2026-04-21 09:08 39.57140 29.73385 35986 ft 425 kts 333°
2026-04-21 09:08 39.62570 29.70328 35841 ft 428 kts 333°
2026-04-21 09:09 39.65295 29.68787 35579 ft 425 kts 333°
2026-04-21 09:09 39.68003 29.67255 35331 ft 423 kts 333°
2026-04-21 09:09 39.70699 29.65729 35088 ft 422 kts 332°
2026-04-21 09:09 39.73389 29.64204 34861 ft 422 kts 332°
2026-04-21 09:10 39.75171 29.63193 34698 ft 422 kts 332°
2026-04-21 09:10 39.77857 29.61668 34460 ft 421 kts 332°
2026-04-21 09:10 39.81420 29.59645 33503 ft 421 kts 333°
2026-04-21 09:10 39.83235 29.58612 32927 ft 422 kts 333°
2026-04-21 09:11 39.85923 29.57084 32112 ft 422 kts 333°
2026-04-21 09:11 39.88617 29.55550 31336 ft 422 kts 333°
2026-04-21 09:11 39.91340 29.54085 30498 ft 426 kts 338°
2026-04-21 09:11 39.94244 29.53201 29648 ft 430 kts 345°
2026-04-21 09:12 39.97197 29.52533 28665 ft 431 kts 346°
2026-04-21 09:12 40.00155 29.51895 27721 ft 431 kts 346°
2026-04-21 09:12 40.03114 29.51237 26873 ft 430 kts 346°
2026-04-21 09:12 40.06034 29.50561 26181 ft 424 kts 346°
2026-04-21 09:13 40.08868 29.49884 25858 ft 411 kts 346°
2026-04-21 09:13 40.11641 29.49211 25594 ft 399 kts 346°
2026-04-21 09:13 40.14348 29.48692 25330 ft 390 kts 353°
2026-04-21 09:13 40.17044 29.48752 25083 ft 383 kts 358°
2026-04-21 09:14 40.19662 29.48946 24850 ft 380 kts 359°
2026-04-21 09:14 40.22298 29.49151 24612 ft 379 kts 359°
2026-04-21 09:14 40.24925 29.49351 24253 ft 377 kts 359°
2026-04-21 09:14 40.27525 29.49539 23822 ft 373 kts 359°
2026-04-21 09:15 40.30114 29.49719 23357 ft 370 kts 359°
2026-04-21 09:15 40.32668 29.49891 22835 ft 367 kts 359°
2026-04-21 09:15 40.35206 29.50058 22392 ft 363 kts 359°
2026-04-21 09:15 40.37717 29.50224 21931 ft 360 kts 359°
2026-04-21 09:16 40.40209 29.50388 21464 ft 357 kts 359°
2026-04-21 09:16 40.42682 29.50550 21030 ft 354 kts 359°
2026-04-21 09:16 40.45129 29.50710 20585 ft 352 kts 359°
2026-04-21 09:16 40.47569 29.50870 20149 ft 349 kts 359°
2026-04-21 09:17 40.49991 29.51029 19722 ft 347 kts 359°
2026-04-21 09:17 40.52401 29.51187 19290 ft 346 kts 359°
2026-04-21 09:17 40.54798 29.51345 18882 ft 344 kts 359°
2026-04-21 09:17 40.57186 29.51502 18460 ft 344 kts 359°
2026-04-21 09:18 40.59578 29.51659 17990 ft 343 kts 359°
2026-04-21 09:18 40.61954 29.51816 17679 ft 338 kts 359°
2026-04-21 09:18 40.64272 29.51974 17540 ft 328 kts 359°
2026-04-21 09:18 40.66488 29.52204 17384 ft 322 kts
2026-04-21 09:19 40.68531 29.53333 17294 ft 319 kts 31°
2026-04-21 09:19 40.70102 29.55392 17013 ft 322 kts 53°
2026-04-21 09:19 40.71026 29.58081 16682 ft 325 kts 76°
2026-04-21 09:19 40.71331 29.61033 16384 ft 324 kts 83°
2026-04-21 09:20 40.71506 29.63989 16049 ft 323 kts 84°
2026-04-21 09:20 40.71669 29.66938 15729 ft 322 kts 84°
2026-04-21 09:20 40.71847 29.69873 15407 ft 321 kts 83°
2026-04-21 09:20 40.72037 29.72794 15086 ft 319 kts 83°
2026-04-21 09:21 40.72231 29.75708 14768 ft 318 kts 83°
2026-04-21 09:21 40.72424 29.78591 14606 ft 311 kts 83°
2026-04-21 09:21 40.72612 29.81421 14338 ft 310 kts 83°
2026-04-21 09:21 40.72800 29.84246 14041 ft 309 kts 83°
2026-04-21 09:22 40.72987 29.87069 13712 ft 309 kts 83°
2026-04-21 09:22 40.73174 29.89899 13368 ft 309 kts 83°
2026-04-21 09:22 40.73360 29.92718 13028 ft 309 kts 84°
2026-04-21 09:22 40.73546 29.95557 12695 ft 311 kts 84°
2026-04-21 09:23 40.73734 29.98407 12328 ft 313 kts 82°
2026-04-21 09:23 40.74331 30.01158 11917 ft 314 kts 59°
2026-04-21 09:23 40.75566 30.03486 11550 ft 314 kts 50°
2026-04-21 09:23 40.76919 30.05747 11217 ft 314 kts 49°
2026-04-21 09:24 40.78274 30.08002 10870 ft 314 kts 49°
2026-04-21 09:24 40.79615 30.10266 10542 ft 313 kts 50°
2026-04-21 09:24 40.80950 30.12530 10354 ft 308 kts 47°
2026-04-21 09:24 40.82572 30.14275 10153 ft 298 kts 22°
2026-04-21 09:25 40.84530 30.14924 9910 ft 287 kts 356°
2026-04-21 09:25 40.86430 30.14382 9664 ft 277 kts 330°
2026-04-21 09:25 40.87896 30.12802 9367 ft 272 kts 304°
2026-04-21 09:25 40.88814 30.10637 9079 ft 270 kts 294°
2026-04-21 09:26 40.89584 30.08360 8728 ft 273 kts 292°
2026-04-21 09:26 40.90335 30.06070 8397 ft 275 kts 292°
2026-04-21 09:26 40.91084 30.03762 8114 ft 271 kts 292°
2026-04-21 09:26 40.91819 30.01482 7855 ft 268 kts 292°
2026-04-21 09:27 40.92545 29.99223 7580 ft 266 kts 292°
2026-04-21 09:27 40.93265 29.96976 7272 ft 264 kts 292°
2026-04-21 09:27 40.93979 29.94747 6981 ft 262 kts 292°
2026-04-21 09:27 40.94690 29.92528 6687 ft 262 kts 292°
2026-04-21 09:28 40.95401 29.90310 6396 ft 261 kts 292°
2026-04-21 09:28 40.96106 29.88107 6072 ft 259 kts 292°
2026-04-21 09:28 40.96806 29.85917 5793 ft 258 kts 292°
2026-04-21 09:28 40.97499 29.83746 5633 ft 253 kts 292°
2026-04-21 09:29 40.98167 29.81658 5506 ft 245 kts 292°
2026-04-21 09:29 40.98823 29.79617 5434 ft 235 kts 292°
2026-04-21 09:29 40.99463 29.77645 5346 ft 232 kts 292°
2026-04-21 09:29 41.00095 29.75694 5233 ft 228 kts 292°
2026-04-21 09:30 41.00715 29.73788 5092 ft 222 kts 292°
2026-04-21 09:30 41.01322 29.71917 5051 ft 221 kts 292°
2026-04-21 09:30 41.01912 29.70049 4994 ft 218 kts 287°
2026-04-21 09:30 41.01892 29.68122 5003 ft 210 kts 252°
2026-04-21 09:31 41.01422 29.66261 5007 ft 217 kts 253°
2026-04-21 09:31 41.00923 29.64401 4992 ft 210 kts 249°
2026-04-21 09:31 41.00366 29.62695 4973 ft 200 kts 246°
2026-04-21 09:31 40.99772 29.61021 4839 ft 203 kts 245°
2026-04-21 09:32 40.99164 29.59350 4664 ft 200 kts 245°
2026-04-21 09:32 40.98560 29.57699 4573 ft 199 kts 245°
2026-04-21 09:32 40.97951 29.56035 4414 ft 202 kts 245°
2026-04-21 09:32 40.97353 29.54367 4221 ft 198 kts 245°
2026-04-21 09:33 40.96758 29.52729 3929 ft 197 kts 245°
2026-04-21 09:33 40.96153 29.51094 3609 ft 196 kts 246°
2026-04-21 09:33 40.95557 29.49467 3308 ft 197 kts 245°
2026-04-21 09:33 40.94966 29.47859 2989 ft 190 kts 245°
2026-04-21 09:34 40.94381 29.46327 2709 ft 183 kts 244°
2026-04-21 09:34 40.93842 29.44842 2422 ft 180 kts 245°
2026-04-21 09:34 40.93288 29.43376 2162 ft 174 kts 245°
2026-04-21 09:34 40.92783 29.41964 1899 ft 163 kts 245°
2026-04-21 09:35 40.92308 29.40659 1641 ft 153 kts 244°
2026-04-21 09:35 40.91854 29.39413 1352 ft 150 kts 245°
2026-04-21 09:35 40.91407 29.38198 1125 ft 144 kts 244°
2026-04-21 09:35 40.90970 29.37012 925 ft 144 kts 245°
2026-04-21 09:36 40.90533 29.35820 718 ft 144 kts 244°
2026-04-21 09:36 40.90105 29.34648 483 ft 143 kts 242°
2026-04-21 09:36 40.89667 29.33471 306 ft 139 kts 243°
2026-04-21 09:36 40.89310 29.32499 302 ft 96 kts 245°
2026-04-21 09:37 40.89126 29.31917 300 ft 42 kts 261°
2026-04-21 09:37 40.89127 29.31673 304 ft 12 kts 274°
2026-04-21 09:37 40.89134 29.31557 303 ft 13 kts 275°
2026-04-21 09:37 40.89157 29.31455 302 ft 8 kts 313°
2026-04-21 09:38 40.89211 29.31425 304 ft 9 kts
2026-04-21 09:38 40.89247 29.31462 303 ft 0 kts 62°
2026-04-21 09:39 40.89255 29.31475 305 ft 4 kts 43°
2026-04-21 09:39 40.89298 29.31472 304 ft 9 kts 334°
2026-04-21 09:39 40.89364 29.31416 307 ft 14 kts 326°
2026-04-21 09:39 40.89473 29.31347 311 ft 19 kts 335°
2026-04-21 09:40 40.89602 29.31266 316 ft 21 kts 334°
2026-04-21 09:40 40.89650 29.31236 319 ft 0 kts 336°